K2HF Weather Reports


time (UTC)temp
C
wind
direction
speed
KPH
gust
KPH
rain 1hr
cm
rain 24hr
cm
rain mn
cm
humidity
%
barometer
mb
20260504235816 12 189 3.2 12.9 0.00 0.00 0.00 17 1009.5
20260504235715 12 189 3.2 9.7 0.00 0.00 0.00 19 1009.5
20260504235701 12 189 3.2 9.7 0.00 0.00 0.00 19 1009.5
20260504235616 12 189 3.2 9.7 0.00 0.00 0.00 19 1009.5
20260504235516 12 189 3.2 14.5 0.00 0.00 0.00 19 1009.5
20260504235416 12 189 3.2 14.5 0.00 0.00 0.00 20 1009.5
20260504235315 12 189 3.2 14.5 0.00 0.00 0.00 22 1009.5
20260504235215 12 189 3.2 14.5 0.00 0.00 0.00 22 1009.5
20260504235203 12 189 4.8 14.5 0.00 0.00 0.00 25 1009.4
20260504235158 12 189 3.2 14.5 0.00 0.00 0.00 22 1009.5
20260504235117 12 189 3.2 14.5 0.00 0.00 0.00 23 1009.5
20260504235017 12 189 3.2 14.5 0.00 0.00 0.00 23 1009.5
20260504234913 12 189 4.8 14.5 0.00 0.00 0.00 23 1009.5
20260504234819 12 189 4.8 14.5 0.00 0.00 0.00 24 1009.5
20260504234803 12 189 4.8 14.5 0.00 0.00 0.00 25 1009.5
20260504234613 12 189 4.8 14.5 0.00 0.00 0.00 26 1009.4
20260504234513 12 188 4.8 12.9 0.00 0.00 0.00 26 1009.5
20260504234413 12 189 4.8 12.9 0.00 0.00 0.00 27 1009.5
20260504234313 12 189 3.2 12.9 0.00 0.00 0.00 28 1009.4
20260504234213 12 189 3.2 12.9 0.00 0.00 0.00 28 1009.4
20260504234159 12 189 3.2 12.9 0.00 0.00 0.00 29 1009.4
20260504234114 12 188 3.2 12.9 0.00 0.00 0.00 29 1009.4
20260504234015 12 188 3.2 12.9 0.00 0.00 0.00 30 1009.4
20260504233914 13 189 3.2 12.9 0.00 0.00 0.00 31 1009.4
20260504233815 13 189 3.2 12.9 0.00 0.00 0.00 32 1009.4
20260504233714 13 189 3.2 14.5 0.00 0.00 0.00 32 1009.5
20260504233658 13 189 3.2 14.5 0.00 0.00 0.00 33 1009.4
20260504233611 13 188 3.2 14.5 0.00 0.00 0.00 34 1009.4
20260504233512 13 189 3.2 14.5 0.00 0.00 0.00 34 1009.3
20260504233411 13 189 3.2 14.5 0.00 0.00 0.00 35 1009.4
20260504233312 13 189 4.8 14.5 0.00 0.00 0.00 37 1009.3
20260504233211 13 189 4.8 14.5 0.00 0.00 0.00 37 1009.3
20260504233200 13 189 4.8 14.5 0.00 0.00 0.00 37 1009.3
20260504233155 13 189 3.2 14.5 0.00 0.00 0.00 40 1009.2
20260504233112 13 189 4.8 14.5 0.00 0.00 0.00 37 1009.3
20260504233011 13 189 4.8 14.5 0.00 0.00 0.00 39 1009.3
20260504232912 13 189 4.8 14.5 0.00 0.00 0.00 39 1009.2
20260504232816 13 188 4.8 14.5 0.00 0.00 0.00 41 1009.3
20260504232802 13 189 3.2 14.5 0.00 0.00 0.00 40 1009.4
20260504232610 13 189 3.2 14.5 0.00 0.00 0.00 42 1009.2
20260504232510 13 189 3.2 14.5 0.00 0.00 0.00 42 1009.2
20260504232410 13 188 3.2 14.5 0.00 0.00 0.00 43 1009.2
20260504232310 13 188 3.2 14.5 0.00 0.00 0.00 44 1009.2
20260504232209 13 189 3.2 12.9 0.00 0.00 0.00 44 1009.3
20260504232155 13 188 3.2 12.9 0.00 0.00 0.00 44 1009.2
20260504232110 13 189 3.2 12.9 0.00 0.00 0.00 45 1009.2
20260504232011 13 188 3.2 12.9 0.00 0.00 0.00 45 1009.1
20260504231910 13 188 3.2 12.9 0.00 0.00 0.00 46 1009.2
20260504231811 13 188 3.2 12.9 0.00 0.00 0.00 47 1009.2
20260504231709 13 188 3.2 12.9 0.00 0.00 0.00 47 1009.1
20260504231654 13 188 3.2 12.9 0.00 0.00 0.00 47 1009.2
20260504231610 14 188 3.2 12.9 0.00 0.00 0.00 49 1009.2
20260504231511 14 188 3.2 11.3 0.00 0.00 0.00 49 1009.1
20260504231409 14 188 4.8 11.3 0.00 0.00 0.00 50 1009.2
20260504231311 14 189 3.2 11.3 0.00 0.00 0.00 50 1009.1
20260504231210 14 189 4.8 11.3 0.00 0.00 0.00 51 1009.2
20260504231159 14 188 4.8 11.3 0.00 0.00 0.00 54 1009.2
20260504231154 14 188 4.8 11.3 0.00 0.00 0.00 51 1009.2
20260504231110 14 188 4.8 11.3 0.00 0.00 0.00 51 1009.2
20260504231011 14 188 4.8 11.3 0.00 0.00 0.00 51 1009.2
20260504230911 14 188 4.8 11.3 0.00 0.00 0.00 52 1009.2
20260504230815 14 188 4.8 11.3 0.00 0.00 0.00 52 1009.3
20260504230801 14 188 4.8 11.3 0.00 0.00 0.00 54 1009.2
20260504230611 14 188 4.8 14.5 0.00 0.00 0.00 54 1009.2
20260504230510 14 188 4.8 14.5 0.00 0.00 0.00 54 1009.2
20260504230410 14 188 4.8 14.5 0.00 0.00 0.00 56 1009.2
20260504230311 14 188 4.8 14.5 0.00 0.00 0.00 56 1009.1
20260504230210 15 188 4.8 16.1 0.00 0.00 0.00 56 1009.1
20260504230154 15 188 4.8 16.1 0.00 0.00 0.00 57 1009.2
20260504230111 15 188 4.8 16.1 0.00 0.00 0.00 57 1009.2
20260504230010 15 188 6.4 16.1 0.00 0.00 0.00 58 1009.1
20260504225912 15 188 6.4 16.1 0.00 0.00 0.00 58 1009.2
20260504225810 15 188 4.8 16.1 0.00 0.00 0.00 58 1009.2
20260504225710 15 188 6.4 16.1 0.00 0.00 0.00 59 1009.3
20260504225655 15 188 6.4 16.1 0.00 0.00 0.00 59 1009.3
20260504225610 15 188 6.4 16.1 0.00 0.00 0.00 59 1009.3
20260504225509 15 188 4.8 16.1 0.00 0.00 0.00 60 1009.2
20260504225409 15 188 4.8 16.1 0.00 0.00 0.00 60 1009.2
20260504225310 15 188 4.8 16.1 0.00 0.00 0.00 61 1009.3
20260504225210 15 188 4.8 14.5 0.00 0.00 0.00 61 1009.2
20260504225155 15 188 4.8 14.5 0.00 0.00 0.00 61 1009.2
20260504225110 15 188 4.8 14.5 0.00 0.00 0.00 61 1009.2
20260504225010 15 188 4.8 14.5 0.00 0.00 0.00 61 1009.3
20260504224912 16 188 4.8 14.5 0.00 0.00 0.00 61 1009.3
20260504224810 16 188 4.8 12.9 0.00 0.00 0.00 61 1009.3
20260504224710 16 188 4.8 12.9 0.00 0.00 0.00 61 1009.2
20260504224658 16 188 4.8 16.1 0.00 0.00 0.00 61 1009.3
20260504224654 16 188 4.8 12.9 0.00 0.00 0.00 61 1009.2
20260504224610 16 188 4.8 12.9 0.00 0.00 0.00 61 1009.2
20260504224509 16 188 4.8 12.9 0.00 0.00 0.00 61 1009.2
20260504224410 16 188 4.8 12.9 0.00 0.00 0.00 61 1009.4
20260504224315 16 188 4.8 12.9 0.00 0.00 0.00 61 1009.3
20260504224301 16 188 4.8 16.1 0.00 0.00 0.00 61 1009.3
20260504224111 16 188 4.8 16.1 0.00 0.00 0.00 61 1009.3
20260504224010 16 188 4.8 16.1 0.00 0.00 0.00 61 1009.2
20260504223909 16 188 4.8 16.1 0.00 0.00 0.00 61 1009.1
20260504223809 16 188 4.8 16.1 0.00 0.00 0.00 61 1009.3
20260504223710 16 188 4.8 16.1 0.00 0.00 0.00 61 1009.3
20260504223659 16 188 3.2 12.9 0.00 0.00 0.00 61 1009.3
20260504223653 16 188 4.8 16.1 0.00 0.00 0.00 61 1009.3
20260504223611 16 188 4.8 16.1 0.00 0.00 0.00 61 1009.3
20260504223510 16 188 4.8 16.1 0.00 0.00 0.00 61 1009.3
20260504223410 16 188 4.8 16.1 0.00 0.00 0.00 61 1009.4
20260504223316 16 188 4.8 16.1 0.00 0.00 0.00 61 1009.4
20260504223301 16 188 3.2 12.9 0.00 0.00 0.00 61 1009.4
20260504223110 16 188 3.2 12.9 0.00 0.00 0.00 61 1009.3
20260504223009 16 188 3.2 11.3 0.00 0.00 0.00 61 1009.3
20260504222910 16 188 3.2 11.3 0.00 0.00 0.00 61 1009.3
20260504222809 16 188 3.2 11.3 0.00 0.00 0.00 61 1009.3
20260504222710 16 188 3.2 14.5 0.00 0.00 0.00 60 1009.3
20260504222654 16 188 3.2 14.5 0.00 0.00 0.00 60 1009.4
20260504222609 16 188 3.2 14.5 0.00 0.00 0.00 60 1009.4
20260504222510 16 188 3.2 14.5 0.00 0.00 0.00 60 1009.4
20260504222409 16 188 3.2 14.5 0.00 0.00 0.00 60 1009.6
20260504222309 16 188 3.2 14.5 0.00 0.00 0.00 60 1009.4
20260504222209 16 188 3.2 14.5 0.00 0.00 0.00 60 1009.3
20260504222155 16 188 3.2 14.5 0.00 0.00 0.00 60 1009.3
20260504222109 16 188 3.2 14.5 0.00 0.00 0.00 60 1009.3
20260504222011 16 188 3.2 14.5 0.00 0.00 0.00 60 1009.3
20260504221910 16 188 3.2 14.5 0.00 0.00 0.00 60 1009.3
20260504221810 16 188 3.2 14.5 0.00 0.00 0.00 60 1009.3
20260504221710 16 188 3.2 20.9 0.00 0.00 0.00 61 1009.4
20260504221654 16 188 4.8 20.9 0.00 0.00 0.00 61 1009.4
20260504221609 16 188 4.8 20.9 0.00 0.00 0.00 60 1009.4
20260504221511 16 188 4.8 20.9 0.00 0.00 0.00 60 1009.4
20260504221409 16 188 4.8 20.9 0.00 0.00 0.00 60 1009.4
20260504221311 16 188 4.8 20.9 0.00 0.00 0.00 60 1009.5
20260504221210 16 188 4.8 20.9 0.00 0.00 0.00 60 1009.5
20260504221155 16 188 4.8 20.9 0.00 0.00 0.00 60 1009.4
20260504221110 16 188 4.8 20.9 0.00 0.00 0.00 60 1009.4
20260504221010 16 188 4.8 20.9 0.00 0.00 0.00 60 1009.4
20260504220909 16 188 4.8 20.9 0.00 0.00 0.00 59 1009.4
20260504220810 16 188 4.8 20.9 0.00 0.00 0.00 59 1009.4
20260504220710 16 188 4.8 20.9 0.00 0.00 0.00 59 1009.4
20260504220654 16 188 4.8 20.9 0.00 0.00 0.00 59 1009.4
20260504220611 16 188 4.8 20.9 0.00 0.00 0.00 59 1009.4
20260504220509 16 188 4.8 20.9 0.00 0.00 0.00 59 1009.5
20260504220409 16 187 4.8 20.9 0.00 0.00 0.00 59 1009.5
20260504220310 16 188 4.8 20.9 0.00 0.00 0.00 59 1009.5
20260504220209 16 188 4.8 20.9 0.00 0.00 0.00 58 1009.6
20260504220154 16 187 4.8 20.9 0.00 0.00 0.00 58 1009.5
20260504220109 16 187 4.8 20.9 0.00 0.00 0.00 57 1009.5
20260504220010 16 188 4.8 20.9 0.00 0.00 0.00 57 1009.5
20260504215910 17 188 4.8 20.9 0.00 0.00 0.00 57 1009.5
20260504215809 17 188 4.8 20.9 0.00 0.00 0.00 57 1009.6
20260504215709 17 188 4.8 17.7 0.00 0.00 0.00 57 1009.4
20260504215659 17 188 4.8 17.7 0.00 0.00 0.00 56 1009.5
20260504215655 17 188 4.8 17.7 0.00 0.00 0.00 57 1009.4
20260504215610 17 188 4.8 17.7 0.00 0.00 0.00 57 1009.4
20260504215510 17 188 4.8 17.7 0.00 0.00 0.00 57 1009.5
20260504215411 17 188 4.8 17.7 0.00 0.00 0.00 57 1009.5
20260504215315 17 188 4.8 17.7 0.00 0.00 0.00 57 1009.5
20260504215300 17 188 4.8 17.7 0.00 0.00 0.00 56 1009.6
20260504215110 17 188 4.8 19.3 0.00 0.00 0.00 56 1009.5
20260504215009 17 188 4.8 19.3 0.00 0.00 0.00 56 1009.4
20260504214911 17 188 4.8 19.3 0.00 0.00 0.00 56 1009.4
20260504214809 17 188 3.2 19.3 0.00 0.00 0.00 55 1009.5
20260504214710 17 188 3.2 19.3 0.00 0.00 0.00 55 1009.6
20260504214655 17 188 3.2 19.3 0.00 0.00 0.00 55 1009.6
20260504214610 17 188 3.2 19.3 0.00 0.00 0.00 55 1009.6
20260504214509 17 188 3.2 19.3 0.00 0.00 0.00 55 1009.7
20260504214409 17 189 3.2 19.3 0.00 0.00 0.00 55 1009.6
20260504214309 17 189 4.8 19.3 0.00 0.00 0.00 55 1009.5
20260504214209 17 189 3.2 19.3 0.00 0.00 0.00 54 1009.5
20260504214153 17 189 3.2 19.3 0.00 0.00 0.00 54 1009.6
20260504214111 17 189 3.2 14.5 0.00 0.00 0.00 54 1009.6
20260504214010 17 190 3.2 14.5 0.00 0.00 0.00 54 1009.6
20260504213911 17 190 3.2 14.5 0.00 0.00 0.00 54 1009.5
20260504213810 17 190 4.8 14.5 0.00 0.00 0.00 54 1009.6
20260504213711 17 190 4.8 14.5 0.00 0.00 0.00 55 1009.5
20260504213654 17 190 4.8 14.5 0.00 0.00 0.00 55 1009.5
20260504213610 17 190 4.8 14.5 0.00 0.00 0.00 55 1009.5
20260504213509 17 190 4.8 14.5 0.00 0.00 0.00 55 1009.6
20260504213410 17 190 4.8 14.5 0.00 0.00 0.00 55 1009.5
20260504213310 18 190 4.8 14.5 0.00 0.00 0.00 54 1009.5
20260504213209 18 190 4.8 16.1 0.00 0.00 0.00 54 1009.6
20260504213155 18 190 4.8 16.1 0.00 0.00 0.00 54 1009.7
20260504213109 18 190 4.8 16.1 0.00 0.00 0.00 53 1009.7
20260504213011 18 190 4.8 16.1 0.00 0.00 0.00 54 1009.6
20260504212909 18 190 4.8 16.1 0.00 0.00 0.00 53 1009.6
20260504212809 18 190 4.8 16.1 0.00 0.00 0.00 53 1009.6
20260504212711 18 190 3.2 16.1 0.00 0.00 0.00 52 1009.6
20260504212653 18 190 3.2 16.1 0.00 0.00 0.00 52 1009.6
20260504212610 18 190 3.2 16.1 0.00 0.00 0.00 53 1009.6
20260504212509 18 190 3.2 16.1 0.00 0.00 0.00 53 1009.6
20260504212409 18 190 3.2 16.1 0.00 0.00 0.00 53 1009.6
20260504212310 18 190 3.2 16.1 0.00 0.00 0.00 53 1009.6
20260504212209 18 190 3.2 14.5 0.00 0.00 0.00 54 1009.6
20260504212154 18 190 3.2 14.5 0.00 0.00 0.00 54 1009.6
20260504212111 18 190 3.2 14.5 0.00 0.00 0.00 54 1009.6
20260504212009 18 190 3.2 14.5 0.00 0.00 0.00 54 1009.7
20260504211910 18 190 3.2 16.1 0.00 0.00 0.00 54 1009.6
20260504211809 18 190 3.2 16.1 0.00 0.00 0.00 54 1009.7
20260504211711 18 190 3.2 16.1 0.00 0.00 0.00 54 1009.6
20260504211655 18 190 3.2 16.1 0.00 0.00 0.00 54 1009.7
20260504211610 18 190 3.2 16.1 0.00 0.00 0.00 54 1009.7
20260504211510 18 190 4.8 16.1 0.00 0.00 0.00 53 1009.6
20260504211409 17 190 4.8 16.1 0.00 0.00 0.00 53 1009.6
20260504211311 18 190 4.8 16.1 0.00 0.00 0.00 52 1009.5
20260504211209 18 190 4.8 16.1 0.00 0.00 0.00 52 1009.5
20260504211155 18 190 4.8 16.1 0.00 0.00 0.00 52 1009.5
20260504211110 17 190 4.8 16.1 0.00 0.00 0.00 53 1009.5
20260504211010 17 191 4.8 16.1 0.00 0.00 0.00 52 1009.6
20260504210910 17 190 4.8 16.1 0.00 0.00 0.00 52 1009.7
20260504210809 18 190 4.8 16.1 0.00 0.00 0.00 52 1009.6
20260504210710 18 190 4.8 16.1 0.00 0.00 0.00 52 1009.6
20260504210654 18 190 4.8 16.1 0.00 0.00 0.00 52 1009.7
20260504210609 18 190 4.8 16.1 0.00 0.00 0.00 52 1009.7
20260504210510 18 191 4.8 16.1 0.00 0.00 0.00 52 1009.6
20260504210409 18 190 4.8 16.1 0.00 0.00 0.00 51 1009.6
20260504210309 18 190 4.8 16.1 0.00 0.00 0.00 51 1009.6
20260504210210 18 191 4.8 16.1 0.00 0.00 0.00 51 1009.6
20260504210154 18 190 4.8 16.1 0.00 0.00 0.00 51 1009.6
20260504210111 18 190 4.8 16.1 0.00 0.00 0.00 51 1009.5
20260504210009 18 190 4.8 16.1 0.00 0.00 0.00 51 1009.5
20260504205911 18 190 4.8 16.1 0.00 0.00 0.00 51 1009.6
20260504205809 18 190 4.8 16.1 0.00 0.00 0.00 52 1009.7
20260504205710 18 190 4.8 16.1 0.00 0.00 0.00 51 1009.6
20260504205654 18 190 4.8 16.1 0.00 0.00 0.00 51 1009.6
20260504205610 18 190 4.8 16.1 0.00 0.00 0.00 51 1009.6
20260504205511 18 190 4.8 16.1 0.00 0.00 0.00 51 1009.6
20260504205410 18 190 4.8 16.1 0.00 0.00 0.00 52 1009.8
20260504205311 18 190 4.8 16.1 0.00 0.00 0.00 51 1009.5
20260504205209 18 190 4.8 16.1 0.00 0.00 0.00 50 1009.5
20260504205154 18 190 4.8 16.1 0.00 0.00 0.00 50 1009.6
20260504205111 18 189 4.8 16.1 0.00 0.00 0.00 51 1009.6
20260504205010 18 190 4.8 16.1 0.00 0.00 0.00 51 1009.6
20260504204909 18 190 4.8 16.1 0.00 0.00 0.00 50 1009.7
20260504204810 18 190 4.8 16.1 0.00 0.00 0.00 51 1009.7
20260504204711 18 190 4.8 12.9 0.00 0.00 0.00 51 1009.8
20260504204654 18 190 4.8 14.5 0.00 0.00 0.00 51 1009.7
20260504204610 18 189 4.8 14.5 0.00 0.00 0.00 51 1009.7
20260504204511 18 189 3.2 14.5 0.00 0.00 0.00 50 1009.7
20260504204410 18 190 3.2 14.5 0.00 0.00 0.00 50 1009.7
20260504204310 18 190 3.2 14.5 0.00 0.00 0.00 50 1009.6
20260504204209 18 190 3.2 14.5 0.00 0.00 0.00 50 1009.4
20260504204154 18 190 3.2 14.5 0.00 0.00 0.00 50 1009.6
20260504204110 18 190 3.2 14.5 0.00 0.00 0.00 50 1009.6
20260504204009 18 190 4.8 14.5 0.00 0.00 0.00 50 1009.6
20260504203909 18 190 4.8 14.5 0.00 0.00 0.00 50 1009.6
20260504203809 18 190 4.8 14.5 0.00 0.00 0.00 50 1009.6
20260504203711 18 190 4.8 14.5 0.00 0.00 0.00 50 1009.6
20260504203653 18 190 4.8 12.9 0.00 0.00 0.00 50 1009.6
20260504203610 18 190 4.8 12.9 0.00 0.00 0.00 50 1009.6
20260504203510 18 190 4.8 20.9 0.00 0.00 0.00 50 1009.8
20260504203411 18 190 4.8 20.9 0.00 0.00 0.00 50 1009.6
20260504203310 18 190 6.4 20.9 0.00 0.00 0.00 49 1009.6
20260504203209 18 190 4.8 20.9 0.00 0.00 0.00 49 1009.6
20260504203154 18 190 4.8 20.9 0.00 0.00 0.00 49 1009.7
20260504203111 18 190 4.8 20.9 0.00 0.00 0.00 49 1009.7
20260504203010 18 190 4.8 20.9 0.00 0.00 0.00 49 1009.6
20260504202910 18 190 4.8 20.9 0.00 0.00 0.00 49 1009.7
20260504202810 18 190 4.8 20.9 0.00 0.00 0.00 48 1009.7
20260504202711 18 190 4.8 20.9 0.00 0.00 0.00 48 1009.7
20260504202654 18 190 3.2 20.9 0.00 0.00 0.00 48 1009.5
20260504202610 19 190 3.2 20.9 0.00 0.00 0.00 49 1009.5
20260504202511 19 190 3.2 16.1 0.00 0.00 0.00 49 1009.5
20260504202410 19 190 3.2 16.1 0.00 0.00 0.00 49 1009.5
20260504202311 19 190 3.2 11.3 0.00 0.00 0.00 50 1009.4
20260504202211 19 190 3.2 11.3 0.00 0.00 0.00 48 1009.4
20260504202153 19 190 3.2 11.3 0.00 0.00 0.00 48 1009.6
20260504202110 19 190 3.2 11.3 0.00 0.00 0.00 48 1009.6
20260504202009 19 190 3.2 17.7 0.00 0.00 0.00 48 1009.5
20260504201910 19 189 3.2 17.7 0.00 0.00 0.00 49 1009.6
20260504201809 19 190 3.2 17.7 0.00 0.00 0.00 49 1009.5
20260504201711 19 190 3.2 17.7 0.00 0.00 0.00 49 1009.7
20260504201653 19 190 3.2 17.7 0.00 0.00 0.00 48 1009.7
20260504201610 19 190 3.2 17.7 0.00 0.00 0.00 48 1009.7
20260504201511 19 190 3.2 17.7 0.00 0.00 0.00 48 1009.6
20260504201411 19 190 3.2 19.3 0.00 0.00 0.00 48 1009.6
20260504201311 19 190 4.8 19.3 0.00 0.00 0.00 47 1009.9
20260504201211 19 190 4.8 19.3 0.00 0.00 0.00 47 1009.8
20260504201153 19 190 4.8 19.3 0.00 0.00 0.00 47 1009.6
20260504201112 19 190 4.8 19.3 0.00 0.00 0.00 47 1009.6
20260504201010 19 190 4.8 19.3 0.00 0.00 0.00 47 1009.6
20260504200911 19 190 4.8 19.3 0.00 0.00 0.00 47 1009.8
20260504200810 19 190 4.8 19.3 0.00 0.00 0.00 46 1009.8
20260504200711 19 190 4.8 19.3 0.00 0.00 0.00 46 1009.8
20260504200654 19 190 4.8 19.3 0.00 0.00 0.00 45 1009.6
20260504200611 19 190 4.8 19.3 0.00 0.00 0.00 45 1009.6
20260504200511 20 190 4.8 19.3 0.00 0.00 0.00 45 1009.6
20260504200409 20 190 3.2 14.5 0.00 0.00 0.00 45 1009.8
20260504200311 20 190 4.8 14.5 0.00 0.00 0.00 45 1009.6
20260504200209 20 190 3.2 14.5 0.00 0.00 0.00 45 1009.8
20260504200155 20 190 3.2 14.5 0.00 0.00 0.00 45 1009.7
20260504200111 20 190 3.2 14.5 0.00 0.00 0.00 45 1009.7
20260504200011 20 190 3.2 14.5 0.00 0.00 0.00 45 1009.8
20260504195909 20 190 3.2 11.3 0.00 0.00 0.00 45 1009.7
20260504195810 20 190 3.2 11.3 0.00 0.00 0.00 47 1009.8
20260504195709 20 190 3.2 11.3 0.00 0.00 0.00 47 1009.8
20260504195655 20 190 3.2 11.3 0.00 0.00 0.00 47 1009.8
20260504195609 20 190 3.2 8.0 0.00 0.00 0.00 45 1009.8
20260504195510 20 190 3.2 8.0 0.00 0.00 0.00 45 1009.8
20260504195410 20 190 3.2 14.5 0.00 0.00 0.00 45 1009.8
20260504195311 20 190 3.2 14.5 0.00 0.00 0.00 45 1009.8
20260504195211 20 190 3.2 14.5 0.00 0.00 0.00 45 1009.7
20260504195154 20 190 3.2 14.5 0.00 0.00 0.00 45 1009.7
20260504195111 20 190 3.2 14.5 0.00 0.00 0.00 45 1009.7
20260504195010 20 190 3.2 14.5 0.00 0.00 0.00 46 1009.8
20260504194911 20 190 3.2 14.5 0.00 0.00 0.00 47 1009.7
20260504194810 20 190 3.2 14.5 0.00 0.00 0.00 47 1009.8
20260504194711 20 190 3.2 14.5 0.00 0.00 0.00 45 1009.8
20260504194654 20 190 3.2 14.5 0.00 0.00 0.00 45 1009.7
20260504194610 20 189 3.2 14.5 0.00 0.00 0.00 45 1009.7
20260504194511 20 190 3.2 14.5 0.00 0.00 0.00 44 1009.8
20260504194410 20 190 3.2 11.3 0.00 0.00 0.00 44 1009.7
20260504194310 20 190 3.2 11.3 0.00 0.00 0.00 44 1009.7
20260504194209 20 190 3.2 11.3 0.00 0.00 0.00 44 1009.9
20260504194154 20 189 3.2 11.3 0.00 0.00 0.00 44 1009.8
20260504194111 20 190 3.2 11.3 0.00 0.00 0.00 45 1009.8
20260504194011 20 189 3.2 11.3 0.00 0.00 0.00 45 1009.8
20260504193911 20 190 3.2 11.3 0.00 0.00 0.00 45 1009.9
20260504193809 20 190 3.2 11.3 0.00 0.00 0.00 45 1009.8
20260504193710 20 190 3.2 11.3 0.00 0.00 0.00 45 1009.8
20260504193654 20 190 3.2 11.3 0.00 0.00 0.00 45 1009.8
20260504193610 20 190 3.2 11.3 0.00 0.00 0.00 45 1009.8
20260504193511 20 190 3.2 11.3 0.00 0.00 0.00 45 1009.7
20260504193411 20 190 3.2 11.3 0.00 0.00 0.00 45 1009.8
20260504193311 20 190 3.2 11.3 0.00 0.00 0.00 46 1009.8
20260504193210 20 190 3.2 11.3 0.00 0.00 0.00 46 1009.8
20260504193151 20 190 3.2 11.3 0.00 0.00 0.00 45 1009.8
20260504193111 20 190 3.2 11.3 0.00 0.00 0.00 45 1009.8
20260504193010 20 190 3.2 14.5 0.00 0.00 0.00 45 1009.8
20260504192910 20 190 3.2 14.5 0.00 0.00 0.00 45 1009.7
20260504192811 20 190 3.2 14.5 0.00 0.00 0.00 45 1009.8
20260504192711 20 190 3.2 14.5 0.00 0.00 0.00 45 1009.8
20260504192651 20 190 3.2 14.5 0.00 0.00 0.00 45 1009.7
20260504192610 20 190 3.2 14.5 0.00 0.00 0.00 45 1009.7
20260504192510 20 190 3.2 14.5 0.00 0.00 0.00 45 1009.8
20260504192411 20 190 3.2 14.5 0.00 0.00 0.00 46 1009.8
20260504192310 20 190 3.2 14.5 0.00 0.00 0.00 45 1009.9
20260504192210 20 190 3.2 14.5 0.00 0.00 0.00 45 1009.8
20260504192152 20 190 3.2 14.5 0.00 0.00 0.00 45 1009.9
20260504192111 20 190 3.2 14.5 0.00 0.00 0.00 45 1009.9
20260504192011 20 190 3.2 12.9 0.00 0.00 0.00 45 1010.0
20260504191910 20 190 3.2 12.9 0.00 0.00 0.00 45 1010.0
20260504191809 20 189 3.2 12.9 0.00 0.00 0.00 45 1010.0
20260504191711 20 190 3.2 12.9 0.00 0.00 0.00 42 1010.0
20260504191652 20 189 4.8 12.9 0.00 0.00 0.00 42 1009.9
20260504191611 20 189 4.8 12.9 0.00 0.00 0.00 42 1009.9
20260504191510 20 189 4.8 14.5 0.00 0.00 0.00 42 1010.0
20260504191409 20 189 4.8 14.5 0.00 0.00 0.00 42 1010.0
20260504191310 20 190 4.8 14.5 0.00 0.00 0.00 42 1009.9
20260504191211 20 190 4.8 14.5 0.00 0.00 0.00 42 1009.9
20260504191151 20 189 3.2 14.5 0.00 0.00 0.00 42 1009.9
20260504191110 20 190 3.2 14.5 0.00 0.00 0.00 42 1009.9
20260504191011 20 190 3.2 14.5 0.00 0.00 0.00 42 1009.9
20260504190911 20 189 3.2 14.5 0.00 0.00 0.00 43 1009.9
20260504190809 20 189 3.2 14.5 0.00 0.00 0.00 43 1009.9
20260504190711 21 189 3.2 14.5 0.00 0.00 0.00 43 1009.9
20260504190651 21 190 3.2 14.5 0.00 0.00 0.00 43 1009.9
20260504190609 21 190 3.2 14.5 0.00 0.00 0.00 42 1009.9
20260504190509 21 190 3.2 14.5 0.00 0.00 0.00 43 1009.9
20260504190408 21 190 3.2 14.5 0.00 0.00 0.00 43 1009.9
20260504190307 20 190 3.2 14.5 0.00 0.00 0.00 43 1009.8
20260504190208 20 190 3.2 14.5 0.00 0.00 0.00 44 1009.9
20260504190151 20 190 4.8 14.5 0.00 0.00 0.00 44 1009.9
20260504190108 20 190 4.8 14.5 0.00 0.00 0.00 45 1010.0
20260504190008 20 190 4.8 14.5 0.00 0.00 0.00 43 1010.0
20260504185907 20 190 4.8 14.5 0.00 0.00 0.00 43 1010.0
20260504185807 20 189 4.8 14.5 0.00 0.00 0.00 43 1010.0
20260504185708 20 189 3.2 14.5 0.00 0.00 0.00 43 1010.0
20260504185657 20 190 3.2 9.7 0.00 0.00 0.00 42 1010.1
20260504185651 20 190 3.2 14.5 0.00 0.00 0.00 43 1010.0
20260504185605 20 190 3.2 14.5 0.00 0.00 0.00 43 1010.0
20260504185504 20 190 3.2 14.5 0.00 0.00 0.00 42 1010.1
20260504185404 20 189 3.2 14.5 0.00 0.00 0.00 42 1010.1
20260504185313 20 190 3.2 14.5 0.00 0.00 0.00 42 1010.0
20260504185258 20 189 3.2 9.7 0.00 0.00 0.00 42 1010.1
20260504185101 20 190 3.2 12.9 0.00 0.00 0.00 45 1010.1
20260504185000 20 189 3.2 12.9 0.00 0.00 0.00 45 1010.1
20260504184901 20 190 3.2 12.9 0.00 0.00 0.00 45 1010.0
20260504184801 20 189 3.2 12.9 0.00 0.00 0.00 47 1010.1
20260504184701 20 190 3.2 12.9 0.00 0.00 0.00 47 1010.1
20260504184649 20 189 3.2 12.9 0.00 0.00 0.00 47 1010.1
20260504184600 20 190 3.2 12.9 0.00 0.00 0.00 46 1010.3
20260504184500 20 189 3.2 12.9 0.00 0.00 0.00 44 1010.1
20260504184359 20 190 3.2 12.9 0.00 0.00 0.00 44 1010.1
20260504184259 20 190 3.2 12.9 0.00 0.00 0.00 47 1010.3
20260504184159 20 190 3.2 12.9 0.00 0.00 0.00 47 1010.3
20260504184153 20 190 3.2 12.9 0.00 0.00 0.00 45 1010.4
20260504184148 20 189 3.2 12.9 0.00 0.00 0.00 47 1010.3
20260504184059 20 189 3.2 11.3 0.00 0.00 0.00 46 1010.3
20260504183959 20 190 3.2 11.3 0.00 0.00 0.00 47 1010.3
20260504183859 20 189 3.2 11.3 0.00 0.00 0.00 46 1010.4
20260504183806 20 190 3.2 11.3 0.00 0.00 0.00 43 1010.4
20260504183752 20 190 3.2 12.9 0.00 0.00 0.00 45 1010.4
20260504183556 20 190 3.2 12.9 0.00 0.00 0.00 46 1010.4
20260504183456 20 190 3.2 12.9 0.00 0.00 0.00 47 1010.4
20260504183355 20 190 3.2 12.9 0.00 0.00 0.00 47 1010.4
20260504183252 20 189 1.6 12.9 0.00 0.00 0.00 44 1010.4
20260504183148 20 190 3.2 12.9 0.00 0.00 0.00 44 1010.4
20260504183052 20 190 3.2 12.9 0.00 0.00 0.00 44 1010.3
20260504182952 20 189 1.6 12.9 0.00 0.00 0.00 44 1010.4
20260504182851 20 190 3.2 12.9 0.00 0.00 0.00 44 1010.3
20260504182751 20 190 1.6 12.9 0.00 0.00 0.00 47 1010.3
20260504182648 20 190 3.2 14.5 0.00 0.00 0.00 45 1010.4
20260504182551 20 189 3.2 14.5 0.00 0.00 0.00 45 1010.4
20260504182451 20 190 3.2 14.5 0.00 0.00 0.00 47 1010.4
20260504182353 20 189 3.2 14.5 0.00 0.00 0.00 47 1010.4
20260504182252 20 190 3.2 14.5 0.00 0.00 0.00 45 1010.4
20260504182145 20 190 3.2 14.5 0.00 0.00 0.00 47 1010.4
20260504182049 20 189 3.2 14.5 0.00 0.00 0.00 48 1010.4
20260504181949 20 190 3.2 14.5 0.00 0.00 0.00 48 1010.4
20260504181848 20 189 3.2 14.5 0.00 0.00 0.00 45 1010.5
20260504181749 20 189 3.2 14.5 0.00 0.00 0.00 45 1010.6
20260504181646 20 189 1.6 9.7 0.00 0.00 0.00 47 1010.6
20260504181548 20 189 3.2 8.0 0.00 0.00 0.00 45 1010.5
20260504181448 20 189 1.6 11.3 0.00 0.00 0.00 45 1010.5
20260504181349 20 190 3.2 11.3 0.00 0.00 0.00 46 1010.6
20260504181248 20 190 1.6 14.5 0.00 0.00 0.00 46 1010.5
20260504181148 20 189 1.6 14.5 0.00 0.00 0.00 46 1010.5
20260504181145 20 190 1.6 14.5 0.00 0.00 0.00 46 1010.5
20260504181047 20 190 3.2 14.5 0.00 0.00 0.00 46 1010.5
20260504180947 20 189 3.2 14.5 0.00 0.00 0.00 46 1010.5
20260504180847 20 190 1.6 14.5 0.00 0.00 0.00 46 1010.5
20260504180749 20 189 3.2 14.5 0.00 0.00 0.00 46 1010.6
20260504180640 20 189 3.2 14.5 0.00 0.00 0.00 46 1010.5
20260504180541 20 190 3.2 14.5 0.00 0.00 0.00 44 1010.5
20260504180443 20 190 3.2 14.5 0.00 0.00 0.00 45 1010.4
20260504180340 20 189 3.2 14.5 0.00 0.00 0.00 45 1010.5
20260504180240 20 190 3.2 14.5 0.00 0.00 0.00 46 1010.5
20260504180151 20 190 3.2 14.5 0.00 0.00 0.00 44 1010.6
20260504180140 20 190 3.2 14.5 0.00 0.00 0.00 45 1010.5
20260504180039 20 190 3.2 14.5 0.00 0.00 0.00 45 1010.6
20260504175939 20 190 3.2 14.5 0.00 0.00 0.00 45 1010.5
20260504175840 20 189 3.2 14.5 0.00 0.00 0.00 44 1010.6
20260504175800 20 190 3.2 14.5 0.00 0.00 0.00 44 1010.6
20260504175745 20 190 3.2 14.5 0.00 0.00 0.00 44 1010.6
20260504175540 20 189 3.2 14.5 0.00 0.00 0.00 44 1010.7
20260504175441 20 189 3.2 14.5 0.00 0.00 0.00 44 1010.6
20260504175336 20 190 3.2 17.7 0.00 0.00 0.00 45 1010.6
20260504175236 20 190 4.8 17.7 0.00 0.00 0.00 44 1010.7
20260504175144 20 190 3.2 17.7 0.00 0.00 0.00 44 1010.7
20260504175135 20 189 4.8 17.7 0.00 0.00 0.00 45 1010.7
20260504175032 20 190 3.2 17.7 0.00 0.00 0.00 45 1010.7
20260504174932 20 189 3.2 17.7 0.00 0.00 0.00 44 1010.7
20260504174830 20 189 4.8 17.7 0.00 0.00 0.00 44 1010.6
20260504174747 20 189 4.8 17.7 0.00 0.00 0.00 44 1010.7
20260504174628 20 190 3.2 17.7 0.00 0.00 0.00 44 1010.7
20260504174528 20 190 4.8 17.7 0.00 0.00 0.00 44 1010.7
20260504174428 20 189 3.2 17.7 0.00 0.00 0.00 43 1010.7
20260504174327 20 189 3.2 14.5 0.00 0.00 0.00 43 1010.7
20260504174227 20 189 3.2 14.5 0.00 0.00 0.00 46 1010.6
20260504174124 20 190 3.2 14.5 0.00 0.00 0.00 44 1010.7
20260504174024 20 189 3.2 14.5 0.00 0.00 0.00 44 1010.8
20260504173925 19 190 3.2 14.5 0.00 0.00 0.00 44 1010.7
20260504173825 19 190 3.2 14.5 0.00 0.00 0.00 45 1010.8
20260504173724 19 190 3.2 14.5 0.00 0.00 0.00 45 1010.8
20260504173624 19 189 3.2 14.5 0.00 0.00 0.00 45 1010.8
20260504173524 19 189 3.2 12.9 0.00 0.00 0.00 44 1010.8
20260504173424 19 190 3.2 12.9 0.00 0.00 0.00 44 1010.8
20260504173321 19 189 3.2 9.7 0.00 0.00 0.00 46 1010.7
20260504173218 19 189 3.2 9.7 0.00 0.00 0.00 45 1010.7
20260504173133 19 189 3.2 9.7 0.00 0.00 0.00 45 1010.7
20260504173115 19 190 3.2 9.7 0.00 0.00 0.00 43 1010.7
20260504173014 18 189 3.2 9.7 0.00 0.00 0.00 43 1010.8
20260504172911 18 189 4.8 9.7 0.00 0.00 0.00 44 1010.8
20260504172811 18 189 4.8 9.7 0.00 0.00 0.00 45 1010.9
20260504172712 18 189 4.8 9.7 0.00 0.00 0.00 45 1010.8
20260504172631 18 189 4.8 9.7 0.00 0.00 0.00 45 1010.8
20260504172613 18 189 4.8 9.7 0.00 0.00 0.00 44 1010.8
20260504172511 18 190 4.8 9.7 0.00 0.00 0.00 44 1010.8
20260504172411 18 189 4.8 9.7 0.00 0.00 0.00 44 1010.7
20260504172311 18 189 4.8 9.7 0.00 0.00 0.00 43 1010.7
20260504172212 18 189 4.8 9.7 0.00 0.00 0.00 43 1010.8
20260504172129 18 190 4.8 9.7 0.00 0.00 0.00 42 1010.8
20260504172113 18 189 4.8 9.7 0.00 0.00 0.00 42 1010.8
20260504172013 18 190 4.8 11.3 0.00 0.00 0.00 41 1010.8
20260504171911 19 189 4.8 11.3 0.00 0.00 0.00 40 1010.8
20260504171812 19 190 4.8 11.3 0.00 0.00 0.00 40 1010.8
20260504171710 19 189 4.8 16.1 0.00 0.00 0.00 39 1010.8
20260504171628 19 189 4.8 16.1 0.00 0.00 0.00 39 1010.9
20260504171609 19 189 4.8 16.1 0.00 0.00 0.00 39 1010.8
20260504171508 19 190 6.4 25.7 0.00 0.00 0.00 40 1010.9
20260504171405 19 189 6.4 25.7 0.00 0.00 0.00 40 1010.8
20260504171305 19 189 6.4 25.7 0.00 0.00 0.00 40 1010.9
20260504171203 19 189 6.4 25.7 0.00 0.00 0.00 41 1011.0
20260504171127 19 189 6.4 25.7 0.00 0.00 0.00 40 1011.0
20260504171103 19 189 4.8 25.7 0.00 0.00 0.00 40 1010.8
20260504171003 19 189 6.4 25.7 0.00 0.00 0.00 40 1010.9
20260504170904 19 189 6.4 25.7 0.00 0.00 0.00 38 1010.9
20260504170805 19 189 4.8 25.7 0.00 0.00 0.00 37 1010.8
20260504170705 19 189 4.8 25.7 0.00 0.00 0.00 37 1010.9
20260504170604 19 189 4.8 25.7 0.00 0.00 0.00 38 1010.9
20260504170503 19 189 4.8 14.5 0.00 0.00 0.00 40 1010.9
20260504170403 19 190 4.8 14.5 0.00 0.00 0.00 40 1010.9
20260504170304 19 189 4.8 14.5 0.00 0.00 0.00 40 1010.9
20260504170204 19 189 4.8 14.5 0.00 0.00 0.00 39 1010.9
20260504160433 18 189 8.0 14.5 0.00 0.00 0.00 40 1011.4
20260504160334 18 189 8.0 14.5 0.00 0.00 0.00 40 1011.4
20260504160232 18 189 8.0 14.5 0.00 0.00 0.00 38 1011.5
20260504160123 18 189 8.0 14.5 0.00 0.00 0.00 37 1011.4
20260504151123 17 189 6.4 14.5 0.00 0.00 0.00 41 1011.9
20260504151106 17 190 6.4 14.5 0.00 0.00 0.00 43 1012.0
20260504151005 17 189 6.4 14.5 0.00 0.00 0.00 42 1011.8
20260504150907 17 189 6.4 14.5 0.00 0.00 0.00 42 1011.8
20260504150806 17 189 6.4 12.9 0.00 0.00 0.00 41 1011.9
20260504150703 17 190 6.4 12.9 0.00 0.00 0.00 44 1011.9
20260504150623 17 190 6.4 12.9 0.00 0.00 0.00 44 1011.9
20260504150604 17 189 6.4 12.9 0.00 0.00 0.00 44 1012.0
20260504150503 17 189 6.4 12.9 0.00 0.00 0.00 45 1011.9
20260504150401 17 189 6.4 19.3 0.00 0.00 0.00 45 1012.0
20260504150302 17 189 6.4 19.3 0.00 0.00 0.00 45 1012.0
20260504150158 17 190 6.4 19.3 0.00 0.00 0.00 44 1012.0
20260504150123 17 189 6.4 19.3 0.00 0.00 0.00 44 1012.0
20260504141320 16 190 6.4 11.3 0.00 0.00 0.00 45 1012.3
20260504141237 16 189 6.4 11.3 0.00 0.00 0.00 43 1012.3
20260504141119 16 190 6.4 16.1 0.00 0.00 0.00 43 1012.3
20260504141018 16 190 6.4 16.1 0.00 0.00 0.00 43 1012.2
20260504140918 16 190 6.4 16.1 0.00 0.00 0.00 43 1012.3
20260504140816 16 189 4.8 16.1 0.00 0.00 0.00 43 1012.3
20260504140716 16 189 4.8 16.1 0.00 0.00 0.00 43 1012.3
20260504140620 16 190 4.8 16.1 0.00 0.00 0.00 43 1012.3
20260504140615 16 189 4.8 16.1 0.00 0.00 0.00 43 1012.3
20260504140514 16 189 4.8 16.1 0.00 0.00 0.00 43 1012.3
20260504140413 16 189 4.8 16.1 0.00 0.00 0.00 42 1012.2
20260504140314 16 189 4.8 16.1 0.00 0.00 0.00 42 1012.3
20260504140211 16 189 4.8 16.1 0.00 0.00 0.00 42 1012.3
20260504140120 16 189 4.8 14.5 0.00 0.00 0.00 44 1012.2
20260504140111 16 190 4.8 14.5 0.00 0.00 0.00 44 1012.2
20260504130735 15 189 4.8 8.0 0.00 0.00 0.00 48 1012.8
20260504130634 15 189 4.8 8.0 0.00 0.00 0.00 49 1012.8
20260504130614 15 190 4.8 8.0 0.00 0.00 0.00 49 1012.8
20260504130533 15 189 4.8 8.0 0.00 0.00 0.00 50 1012.8
20260504130433 15 189 4.8 8.0 0.00 0.00 0.00 50 1012.8
20260504130331 15 190 4.8 8.0 0.00 0.00 0.00 49 1012.8
20260504130231 15 190 4.8 8.0 0.00 0.00 0.00 49 1012.8
20260504130132 15 189 4.8 8.0 0.00 0.00 0.00 49 1012.9
20260504130114 15 190 4.8 8.0 0.00 0.00 0.00 49 1012.9
20260504120250 13 189 4.8 11.3 0.00 0.00 0.00 52 1012.8
20260504120150 13 190 4.8 11.3 0.00 0.00 0.00 52 1012.8
20260504120109 13 189 4.8 9.7 0.00 0.00 0.00 53 1012.8
20260504110712 11 189 3.2 12.9 0.00 0.00 0.00 54 1012.8
20260504110516 11 190 3.2 12.9 0.00 0.00 0.00 54 1012.9
20260504110415 11 189 3.2 12.9 0.00 0.00 0.00 54 1012.8
20260504110315 11 190 3.2 12.9 0.00 0.00 0.00 56 1012.8
20260504110213 11 189 3.2 12.9 0.00 0.00 0.00 56 1012.8
20260504110105 11 190 3.2 8.0 0.00 0.00 0.00 56 1012.8
20260504100508 -17 0.0 0.0 0.00 0.00 0.00 1012.6
20260504100407 -17 0.0 0.0 0.00 0.00 0.00 1012.5
20260504100308 -17 0.0 0.0 0.00 0.00 0.00 1012.5
20260504100259 -17 0.0 0.0 0.00 0.00 0.00 1012.5
20260504100204 -17 0.0 0.0 0.00 0.00 0.00 1012.5
20260504100104 -17 0.0 0.0 0.00 0.00 0.00 1012.5
20260504090105 -17 0.0 0.0 0.00 0.00 0.00 1012.3
20260504082004 -17 0.0 0.0 0.00 0.00 0.00 1012.1
20260504081917 -17 0.0 0.0 0.00 0.00 0.00 1012.1
20260504081748 -17 0.0 0.0 0.00 0.00 0.00 1012.1
20260504081602 -17 0.0 0.0 0.00 0.00 0.00 1012.1
20260504081458 -17 0.0 0.0 0.00 0.00 0.00 1012.1
20260504081415 -17 0.0 0.0 0.00 0.00 0.00 1012.1
20260504081306 -17 0.0 0.0 0.00 0.00 0.00 1012.0
20260504081210 -17 0.0 0.0 0.00 0.00 0.00 1012.1
20260504081110 -17 0.0 0.0 0.00 0.00 0.00 1012.0
20260504081000 -17 0.0 0.0 0.00 0.00 0.00 1012.1
20260504080911 -17 0.0 0.0 0.00 0.00 0.00 1012.1
20260504080711 -17 0.0 0.0 0.00 0.00 0.00 1012.0
20260504080606 -17 0.0 0.0 0.00 0.00 0.00 1012.1
20260504080503 -17 0.0 0.0 0.00 0.00 0.00 1012.0
20260504080404 -17 0.0 0.0 0.00 0.00 0.00 1012.0
20260504080302 -17 0.0 0.0 0.00 0.00 0.00 1012.0
20260504080236 -17 0.0 0.0 0.00 0.00 0.00 1012.0
20260504080202 -17 0.0 0.0 0.00 0.00 0.00 1012.0
20260504070348 -17 0.0 0.0 0.00 0.00 0.00 1011.5
20260504070209 -17 0.0 0.0 0.00 0.00 0.00 1011.5
20260504070134 -17 0.0 0.0 0.00 0.00 0.00 1011.5
20260504070129 -17 0.0 0.0 0.00 0.00 0.00 1011.5
20260504060157 9 190 1.6 11.3 0.00 0.00 0.00 62 1011.4
20260504050728 8 189 1.6 6.4 0.00 0.00 0.00 56 1011.4
20260504050628 8 190 1.6 6.4 0.00 0.00 0.00 54 1011.4
20260504050527 8 190 1.6 6.4 0.00 0.00 0.00 54 1011.3
20260504050504 8 190 1.6 6.4 0.00 0.00 0.00 54 1011.4
20260504050427 8 190 1.6 6.4 0.00 0.00 0.00 54 1011.4
20260504050327 9 190 1.6 6.4 0.00 0.00 0.00 54 1011.4
20260504050227 9 190 1.6 6.4 0.00 0.00 0.00 54 1011.4
20260504050129 9 190 1.6 6.4 0.00 0.00 0.00 54 1011.4
20260504050008 9 190 1.6 3.2 0.00 0.00 0.00 50 1011.4
20260504050004 9 189 1.6 6.4 0.00 0.00 0.00 53 1011.5
20260504045929 9 189 1.6 6.4 0.00 0.00 0.00 52 1011.5
20260504045827 9 189 1.6 4.8 0.00 0.00 0.00 52 1011.4
20260504045728 9 190 1.6 4.8 0.00 0.00 0.00 52 1011.5
20260504045628 9 190 1.6 4.8 0.00 0.00 0.00 52 1011.4
20260504045614 9 189 1.6 4.8 0.00 0.00 0.00 51 1011.4
20260504045502 9 190 1.6 4.8 0.00 0.00 0.00 51 1011.4
20260504045426 9 190 1.6 4.8 0.00 0.00 0.00 51 1011.4
20260504045326 9 190 1.6 4.8 0.00 0.00 0.00 51 1011.4
20260504045227 9 190 1.6 4.8 0.00 0.00 0.00 51 1011.5
20260504045126 9 190 1.6 3.2 0.00 0.00 0.00 51 1011.4
20260504045109 9 190 1.6 3.2 0.00 0.00 0.00 50 1011.4
20260504044926 9 190 1.6 3.2 0.00 0.00 0.00 50 1011.4
20260504044825 9 190 1.6 3.2 0.00 0.00 0.00 51 1011.4
20260504044725 9 190 0.0 3.2 0.00 0.00 0.00 50 1011.5
20260504044626 9 190 0.0 3.2 0.00 0.00 0.00 51 1011.4
20260504044526 9 190 1.6 3.2 0.00 0.00 0.00 50 1011.4
20260504044502 9 189 1.6 3.2 0.00 0.00 0.00 50 1011.5
20260504044426 9 190 1.6 3.2 0.00 0.00 0.00 50 1011.5
20260504044325 9 189 1.6 3.2 0.00 0.00 0.00 50 1011.4
20260504044226 9 190 1.6 3.2 0.00 0.00 0.00 50 1011.4
20260504044125 9 190 1.6 3.2 0.00 0.00 0.00 51 1011.4
20260504044024 9 189 1.6 3.2 0.00 0.00 0.00 51 1011.4
20260504044002 9 190 1.6 3.2 0.00 0.00 0.00 51 1011.4
20260504043923 9 190 1.6 3.2 0.00 0.00 0.00 50 1011.4
20260504043824 9 190 1.6 3.2 0.00 0.00 0.00 51 1011.5
20260504043724 9 190 1.6 3.2 0.00 0.00 0.00 51 1011.4
20260504043624 9 190 1.6 3.2 0.00 0.00 0.00 51 1011.4
20260504043503 9 190 1.6 3.2 0.00 0.00 0.00 51 1011.5
20260504043424 9 190 1.6 3.2 0.00 0.00 0.00 51 1011.5
20260504043324 9 189 1.6 3.2 0.00 0.00 0.00 51 1011.5
20260504043224 9 190 1.6 3.2 0.00 0.00 0.00 51 1011.5
20260504043125 9 190 1.6 3.2 0.00 0.00 0.00 51 1011.4
20260504043024 9 189 1.6 4.8 0.00 0.00 0.00 51 1011.5
20260504043003 9 190 1.6 4.8 0.00 0.00 0.00 51 1011.5
20260504042925 9 189 1.6 4.8 0.00 0.00 0.00 51 1011.5
20260504042822 9 190 0.0 4.8 0.00 0.00 0.00 51 1011.5
20260504042721 9 190 0.0 4.8 0.00 0.00 0.00 51 1011.4
20260504042622 9 189 0.0 4.8 0.00 0.00 0.00 51 1011.4
20260504042523 9 189 0.0 4.8 0.00 0.00 0.00 51 1011.4
20260504042501 9 189 0.0 4.8 0.00 0.00 0.00 51 1011.5
20260504042421 9 190 0.0 4.8 0.00 0.00 0.00 51 1011.5
20260504042321 9 190 0.0 4.8 0.00 0.00 0.00 51 1011.5
20260504042222 9 189 0.0 4.8 0.00 0.00 0.00 51 1011.5
20260504042122 9 190 0.0 4.8 0.00 0.00 0.00 51 1011.4
20260504042023 9 189 0.0 4.8 0.00 0.00 0.00 51 1011.4
20260504041959 9 189 0.0 4.8 0.00 0.00 0.00 51 1011.5
20260504041923 9 190 0.0 4.8 0.00 0.00 0.00 50 1011.5
20260504041823 9 190 0.0 4.8 0.00 0.00 0.00 50 1011.4
20260504041720 9 190 0.0 4.8 0.00 0.00 0.00 50 1011.4
20260504041619 9 190 1.6 4.8 0.00 0.00 0.00 50 1011.4
20260504041521 9 190 1.6 4.8 0.00 0.00 0.00 50 1011.5
20260504041501 9 190 1.6 4.8 0.00 0.00 0.00 50 1011.4
20260504041421 9 190 1.6 4.8 0.00 0.00 0.00 50 1011.4
20260504041321 9 189 1.6 4.8 0.00 0.00 0.00 49 1011.4
20260504041220 9 189 1.6 4.8 0.00 0.00 0.00 49 1011.4
20260504041121 9 190 1.6 4.8 0.00 0.00 0.00 49 1011.4
20260504041021 9 189 1.6 4.8 0.00 0.00 0.00 49 1011.4
20260504041000 9 190 1.6 4.8 0.00 0.00 0.00 49 1011.4
20260504040920 9 189 1.6 4.8 0.00 0.00 0.00 49 1011.4
20260504040821 9 190 1.6 4.8 0.00 0.00 0.00 48 1011.4
20260504040721 9 189 1.6 4.8 0.00 0.00 0.00 48 1011.4
20260504040620 9 189 1.6 4.8 0.00 0.00 0.00 48 1011.4
20260504040521 9 189 1.6 4.8 0.00 0.00 0.00 48 1011.4
20260504040501 9 190 1.6 4.8 0.00 0.00 0.00 48 1011.4
20260504040419 10 190 1.6 4.8 0.00 0.00 0.00 48 1011.4
20260504040321 10 189 1.6 4.8 0.00 0.00 0.00 48 1011.4
20260504040220 10 190 1.6 4.8 0.00 0.00 0.00 47 1011.4
20260504040119 10 190 1.6 4.8 0.00 0.00 0.00 46 1011.4
20260504040019 10 190 1.6 4.8 0.00 0.00 0.00 46 1011.3
20260504035959 10 190 1.6 4.8 0.00 0.00 0.00 46 1011.3
20260504035921 10 189 1.6 4.8 0.00 0.00 0.00 46 1011.3
20260504035819 10 190 1.6 4.8 0.00 0.00 0.00 46 1011.3
20260504035721 10 189 1.6 4.8 0.00 0.00 0.00 45 1011.2
20260504035621 10 189 0.0 4.8 0.00 0.00 0.00 45 1011.3
20260504035520 11 190 0.0 4.8 0.00 0.00 0.00 45 1011.3
20260504035504 11 190 0.0 4.8 0.00 0.00 0.00 45 1011.3
20260504035459 11 190 0.0 4.8 0.00 0.00 0.00 42 1011.1
20260504035419 11 190 0.0 1.6 0.00 0.00 0.00 44 1011.3
20260504035320 11 189 0.0 1.6 0.00 0.00 0.00 44 1011.2
20260504035221 11 189 0.0 1.6 0.00 0.00 0.00 43 1011.2
20260504035121 11 190 0.0 1.6 0.00 0.00 0.00 42 1011.2
20260504035106 11 190 0.0 1.6 0.00 0.00 0.00 42 1011.2
20260504034918 11 189 0.0 4.8 0.00 0.00 0.00 42 1011.1
20260504034818 11 189 0.0 4.8 0.00 0.00 0.00 42 1011.1
20260504034718 11 190 0.0 4.8 0.00 0.00 0.00 42 1011.1
20260504034618 11 190 1.6 4.8 0.00 0.00 0.00 42 1011.1
20260504034517 11 190 1.6 4.8 0.00 0.00 0.00 42 1011.1
20260504034457 11 189 1.6 4.8 0.00 0.00 0.00 42 1011.0
20260504034419 11 190 1.6 4.8 0.00 0.00 0.00 42 1011.0
20260504034319 11 190 1.6 4.8 0.00 0.00 0.00 42 1011.0
20260504034218 11 190 1.6 4.8 0.00 0.00 0.00 42 1011.0
20260504034118 11 190 1.6 4.8 0.00 0.00 0.00 42 1011.0
20260504034017 11 189 1.6 4.8 0.00 0.00 0.00 42 1011.0
20260504033958 11 190 1.6 3.2 0.00 0.00 0.00 43 1011.0
20260504033918 11 189 1.6 3.2 0.00 0.00 0.00 43 1011.0
20260504033816 11 190 1.6 3.2 0.00 0.00 0.00 43 1011.0
20260504033715 11 190 1.6 3.2 0.00 0.00 0.00 43 1011.0
20260504033616 11 190 0.0 3.2 0.00 0.00 0.00 43 1011.0
20260504033516 10 189 0.0 3.2 0.00 0.00 0.00 43 1011.0
20260504033457 10 190 0.0 3.2 0.00 0.00 0.00 43 1011.0
20260504033417 10 190 0.0 3.2 0.00 0.00 0.00 43 1011.0
20260504033316 10 189 0.0 3.2 0.00 0.00 0.00 44 1011.0
20260504033216 10 190 0.0 3.2 0.00 0.00 0.00 44 1011.0
20260504033117 10 190 0.0 3.2 0.00 0.00 0.00 44 1011.1
20260504033016 10 190 0.0 3.2 0.00 0.00 0.00 44 1011.0
20260504032955 10 190 0.0 3.2 0.00 0.00 0.00 44 1011.1
20260504032916 10 190 0.0 3.2 0.00 0.00 0.00 44 1011.1
20260504032817 10 190 0.0 3.2 0.00 0.00 0.00 45 1011.0
20260504032716 10 190 0.0 3.2 0.00 0.00 0.00 45 1011.1
20260504032616 10 190 0.0 3.2 0.00 0.00 0.00 45 1011.0
20260504032516 10 189 0.0 3.2 0.00 0.00 0.00 46 1011.1
20260504032457 10 190 0.0 3.2 0.00 0.00 0.00 46 1011.1
20260504032415 10 190 0.0 3.2 0.00 0.00 0.00 46 1011.1
20260504032316 10 190 0.0 3.2 0.00 0.00 0.00 46 1011.1
20260504032216 10 189 0.0 3.2 0.00 0.00 0.00 46 1011.1
20260504032116 10 190 0.0 3.2 0.00 0.00 0.00 47 1011.1
20260504032015 10 190 0.0 3.2 0.00 0.00 0.00 47 1011.2
20260504031956 10 189 0.0 3.2 0.00 0.00 0.00 47 1011.2
20260504031916 10 190 0.0 3.2 0.00 0.00 0.00 47 1011.2
20260504031817 10 190 0.0 3.2 0.00 0.00 0.00 48 1011.1
20260504031716 10 190 0.0 3.2 0.00 0.00 0.00 48 1011.1
20260504031617 10 190 0.0 3.2 0.00 0.00 0.00 48 1011.1
20260504031516 10 190 0.0 3.2 0.00 0.00 0.00 48 1011.1
20260504031501 10 189 0.0 6.4 0.00 0.00 0.00 48 1011.2
20260504031456 10 190 0.0 3.2 0.00 0.00 0.00 48 1011.1
20260504031417 10 190 0.0 3.2 0.00 0.00 0.00 48 1011.1
20260504031315 10 189 0.0 3.2 0.00 0.00 0.00 48 1011.1
20260504031216 10 190 0.0 3.2 0.00 0.00 0.00 48 1011.1
20260504031118 10 190 0.0 3.2 0.00 0.00 0.00 48 1011.1
20260504031104 10 190 0.0 4.8 0.00 0.00 0.00 48 1011.1
20260504030916 10 190 0.0 6.4 0.00 0.00 0.00 48 1011.2
20260504030816 10 190 0.0 6.4 0.00 0.00 0.00 48 1011.2
20260504030715 10 190 0.0 6.4 0.00 0.00 0.00 48 1011.1
20260504030615 10 189 0.0 6.4 0.00 0.00 0.00 48 1011.1
20260504030516 10 189 0.0 6.4 0.00 0.00 0.00 49 1011.1
20260504030457 10 190 0.0 6.4 0.00 0.00 0.00 49 1011.2
20260504030417 10 190 0.0 6.4 0.00 0.00 0.00 49 1011.2
20260504030316 10 189 0.0 6.4 0.00 0.00 0.00 49 1011.1
20260504030217 10 189 0.0 6.4 0.00 0.00 0.00 49 1011.1
20260504030115 10 189 0.0 6.4 0.00 0.00 0.00 50 1011.1
20260504030015 10 190 0.0 6.4 0.00 0.00 0.00 50 1011.1
20260504025956 10 190 0.0 3.2 0.00 0.00 0.00 50 1011.1
20260504025917 10 190 0.0 3.2 0.00 0.00 0.00 50 1011.1
20260504025817 10 190 0.0 3.2 0.00 0.00 0.00 50 1011.1
20260504025717 10 190 0.0 3.2 0.00 0.00 0.00 50 1011.1
20260504025617 10 190 0.0 3.2 0.00 0.00 0.00 50 1011.1
20260504025516 10 189 0.0 3.2 0.00 0.00 0.00 50 1011.0
20260504025455 10 189 0.0 3.2 0.00 0.00 0.00 50 1011.0
20260504025417 10 190 0.0 3.2 0.00 0.00 0.00 50 1011.0
20260504025316 10 189 0.0 3.2 0.00 0.00 0.00 50 1011.0
20260504025217 10 190 0.0 3.2 0.00 0.00 0.00 50 1011.0
20260504025116 10 190 0.0 1.6 0.00 0.00 0.00 50 1011.0
20260504025017 10 189 0.0 1.6 0.00 0.00 0.00 50 1011.0
20260504024955 10 190 0.0 1.6 0.00 0.00 0.00 50 1011.1
20260504024916 10 189 0.0 1.6 0.00 0.00 0.00 50 1011.1
20260504024816 10 190 0.0 3.2 0.00 0.00 0.00 49 1011.1
20260504024717 10 190 0.0 3.2 0.00 0.00 0.00 49 1011.1
20260504024616 10 190 0.0 3.2 0.00 0.00 0.00 49 1011.0
20260504024517 10 190 0.0 3.2 0.00 0.00 0.00 49 1011.1
20260504024456 10 190 0.0 3.2 0.00 0.00 0.00 49 1011.0
20260504024415 10 189 0.0 3.2 0.00 0.00 0.00 49 1011.0
20260504024317 10 190 0.0 3.2 0.00 0.00 0.00 49 1011.0
20260504024216 10 189 0.0 3.2 0.00 0.00 0.00 49 1011.0
20260504024116 10 190 0.0 3.2 0.00 0.00 0.00 50 1011.0
20260504024017 10 190 0.0 3.2 0.00 0.00 0.00 50 1011.0
20260504023956 10 189 0.0 3.2 0.00 0.00 0.00 50 1011.0
20260504023915 10 190 0.0 3.2 0.00 0.00 0.00 50 1011.0
20260504023816 10 189 0.0 3.2 0.00 0.00 0.00 50 1011.0
20260504023715 10 189 0.0 3.2 0.00 0.00 0.00 50 1011.0
20260504023615 10 190 0.0 3.2 0.00 0.00 0.00 50 1011.1
20260504023517 10 190 0.0 3.2 0.00 0.00 0.00 50 1011.0
20260504023457 10 190 0.0 3.2 0.00 0.00 0.00 50 1011.1
20260504023416 10 189 0.0 3.2 0.00 0.00 0.00 50 1011.1
20260504023315 10 190 0.0 3.2 0.00 0.00 0.00 50 1011.0
20260504023217 10 190 0.0 3.2 0.00 0.00 0.00 50 1011.0
20260504023115 10 190 0.0 3.2 0.00 0.00 0.00 50 1011.0
20260504023016 10 190 0.0 3.2 0.00 0.00 0.00 50 1011.0
20260504022956 10 190 0.0 3.2 0.00 0.00 0.00 50 1011.0
20260504022916 10 190 0.0 3.2 0.00 0.00 0.00 51 1011.0
20260504022816 9 190 0.0 3.2 0.00 0.00 0.00 51 1011.1
20260504022715 9 190 0.0 3.2 0.00 0.00 0.00 51 1011.0
20260504022615 9 189 0.0 3.2 0.00 0.00 0.00 51 1011.0
20260504022515 9 190 0.0 3.2 0.00 0.00 0.00 52 1011.0
20260504022457 9 190 0.0 3.2 0.00 0.00 0.00 52 1011.0
20260504022417 9 190 0.0 3.2 0.00 0.00 0.00 52 1011.0
20260504022315 9 190 0.0 3.2 0.00 0.00 0.00 52 1011.0
20260504022216 9 190 0.0 3.2 0.00 0.00 0.00 52 1011.0
20260504022115 9 190 0.0 3.2 0.00 0.00 0.00 52 1011.0
20260504022016 9 189 0.0 3.2 0.00 0.00 0.00 52 1011.0
20260504021957 9 190 0.0 3.2 0.00 0.00 0.00 52 1011.0
20260504021916 9 189 0.0 3.2 0.00 0.00 0.00 52 1011.0
20260504021816 9 190 0.0 3.2 0.00 0.00 0.00 52 1011.0
20260504021716 9 190 0.0 1.6 0.00 0.00 0.00 52 1011.1
20260504021616 9 189 0.0 1.6 0.00 0.00 0.00 52 1011.1
20260504021517 9 189 0.0 1.6 0.00 0.00 0.00 52 1011.1
20260504021500 9 190 0.0 3.2 0.00 0.00 0.00 53 1011.0
20260504021456 9 190 0.0 1.6 0.00 0.00 0.00 52 1011.0
20260504021417 9 190 0.0 3.2 0.00 0.00 0.00 53 1011.0
20260504021316 9 190 0.0 3.2 0.00 0.00 0.00 53 1011.0
20260504021216 9 190 0.0 3.2 0.00 0.00 0.00 53 1011.0
20260504021117 9 190 0.0 3.2 0.00 0.00 0.00 53 1011.1
20260504021103 9 190 0.0 3.2 0.00 0.00 0.00 53 1011.0
20260504020917 9 190 0.0 3.2 0.00 0.00 0.00 53 1011.0
20260504020816 9 189 0.0 3.2 0.00 0.00 0.00 53 1011.0
20260504020716 9 189 0.0 3.2 0.00 0.00 0.00 53 1011.0
20260504020617 9 190 0.0 3.2 0.00 0.00 0.00 53 1011.0
20260504020516 9 190 0.0 3.2 0.00 0.00 0.00 53 1011.0
20260504020457 9 190 0.0 3.2 0.00 0.00 0.00 53 1011.0
20260504020417 9 189 0.0 3.2 0.00 0.00 0.00 53 1011.0
20260504020317 9 189 0.0 3.2 0.00 0.00 0.00 53 1011.0
20260504020216 9 190 0.0 3.2 0.00 0.00 0.00 53 1011.0
20260504020117 9 190 0.0 3.2 0.00 0.00 0.00 53 1011.0
20260504020016 9 189 0.0 3.2 0.00 0.00 0.00 53 1011.1
20260504015956 9 189 0.0 3.2 0.00 0.00 0.00 53 1011.0
20260504015916 9 190 0.0 3.2 0.00 0.00 0.00 53 1011.0
20260504015817 9 190 0.0 3.2 0.00 0.00 0.00 53 1011.0
20260504015717 9 190 0.0 3.2 0.00 0.00 0.00 53 1011.0
20260504015616 9 190 0.0 3.2 0.00 0.00 0.00 53 1011.0
20260504015515 9 190 0.0 3.2 0.00 0.00 0.00 53 1011.0
20260504015457 9 190 0.0 3.2 0.00 0.00 0.00 53 1011.0
20260504015415 9 190 0.0 3.2 0.00 0.00 0.00 54 1011.0
20260504015316 9 190 0.0 3.2 0.00 0.00 0.00 54 1011.0
20260504015216 9 189 0.0 3.2 0.00 0.00 0.00 54 1011.0
20260504015116 9 189 0.0 3.2 0.00 0.00 0.00 54 1010.9
20260504015015 9 190 0.0 3.2 0.00 0.00 0.00 54 1010.9
20260504014956 9 190 0.0 3.2 0.00 0.00 0.00 54 1011.0
20260504014917 9 190 0.0 3.2 0.00 0.00 0.00 54 1011.0
20260504014816 9 189 0.0 3.2 0.00 0.00 0.00 53 1010.9
20260504014717 9 190 0.0 3.2 0.00 0.00 0.00 53 1010.9
20260504014616 9 189 0.0 1.6 0.00 0.00 0.00 53 1010.9
20260504014517 9 190 0.0 1.6 0.00 0.00 0.00 53 1010.8
20260504014455 9 190 0.0 1.6 0.00 0.00 0.00 53 1010.9
20260504014416 9 190 0.0 1.6 0.00 0.00 0.00 53 1010.9
20260504014317 9 190 0.0 1.6 0.00 0.00 0.00 53 1010.9
20260504014216 9 189 0.0 1.6 0.00 0.00 0.00 53 1010.9
20260504014117 9 190 0.0 1.6 0.00 0.00 0.00 53 1010.9
20260504014016 9 190 0.0 1.6 0.00 0.00 0.00 53 1010.9
20260504013955 9 189 0.0 1.6 0.00 0.00 0.00 53 1010.9
20260504013915 9 190 0.0 1.6 0.00 0.00 0.00 53 1010.9
20260504013816 9 190 0.0 1.6 0.00 0.00 0.00 54 1010.9
20260504013715 9 190 0.0 1.6 0.00 0.00 0.00 54 1010.9
20260504013615 9 190 0.0 1.6 0.00 0.00 0.00 55 1010.9
20260504013516 9 190 0.0 1.6 0.00 0.00 0.00 55 1010.9
20260504013456 9 190 0.0 1.6 0.00 0.00 0.00 55 1010.8
20260504013415 9 189 0.0 1.6 0.00 0.00 0.00 55 1010.8
20260504013317 9 190 0.0 1.6 0.00 0.00 0.00 55 1010.8
20260504013215 9 189 0.0 1.6 0.00 0.00 0.00 55 1010.8
20260504013115 9 189 0.0 1.6 0.00 0.00 0.00 55 1010.7
20260504013016 9 190 0.0 3.2 0.00 0.00 0.00 55 1010.7
20260504013001 9 190 0.0 3.2 0.00 0.00 0.00 56 1010.7
20260504012957 9 189 0.0 3.2 0.00 0.00 0.00 55 1010.7
20260504012916 9 190 0.0 3.2 0.00 0.00 0.00 56 1010.7
20260504012816 9 189 0.0 3.2 0.00 0.00 0.00 56 1010.7
20260504012717 9 189 0.0 3.2 0.00 0.00 0.00 56 1010.7
20260504012618 9 190 0.0 3.2 0.00 0.00 0.00 56 1010.7
20260504012603 9 190 0.0 3.2 0.00 0.00 0.00 56 1010.7
20260504012416 9 190 0.0 3.2 0.00 0.00 0.00 56 1010.7
20260504012316 9 190 0.0 3.2 0.00 0.00 0.00 56 1010.7
20260504012215 9 189 0.0 3.2 0.00 0.00 0.00 56 1010.7
20260504012117 9 189 0.0 3.2 0.00 0.00 0.00 56 1010.7
20260504012015 9 190 0.0 1.6 0.00 0.00 0.00 56 1010.6
20260504011956 9 189 0.0 1.6 0.00 0.00 0.00 56 1010.6
20260504011916 9 190 0.0 1.6 0.00 0.00 0.00 56 1010.6
20260504011816 9 190 0.0 1.6 0.00 0.00 0.00 57 1010.6
20260504011716 9 190 0.0 1.6 0.00 0.00 0.00 57 1010.6
20260504011616 9 190 0.0 1.6 0.00 0.00 0.00 57 1010.6
20260504011516 9 190 0.0 1.6 0.00 0.00 0.00 57 1010.7
20260504011500 9 190 0.0 1.6 0.00 0.00 0.00 57 1010.5
20260504011455 9 190 0.0 1.6 0.00 0.00 0.00 57 1010.6
20260504011415 9 189 0.0 1.6 0.00 0.00 0.00 57 1010.6
20260504011316 9 190 0.0 1.6 0.00 0.00 0.00 57 1010.6
20260504011216 9 190 0.0 1.6 0.00 0.00 0.00 57 1010.6
20260504011117 9 190 0.0 1.6 0.00 0.00 0.00 57 1010.5
20260504011102 9 189 0.0 1.6 0.00 0.00 0.00 57 1010.5
20260504010915 9 189 0.0 1.6 0.00 0.00 0.00 57 1010.5
20260504010817 9 190 0.0 1.6 0.00 0.00 0.00 57 1010.5
20260504010717 9 190 0.0 1.6 0.00 0.00 0.00 57 1010.5
20260504010616 9 190 0.0 1.6 0.00 0.00 0.00 57 1010.5
20260504010517 9 189 0.0 1.6 0.00 0.00 0.00 57 1010.4
20260504010456 9 190 0.0 1.6 0.00 0.00 0.00 57 1010.4
20260504010416 9 189 0.0 1.6 0.00 0.00 0.00 57 1010.4
20260504010315 9 189 0.0 1.6 0.00 0.00 0.00 57 1010.4
20260504010216 9 190 0.0 1.6 0.00 0.00 0.00 57 1010.4
20260504010115 9 189 0.0 1.6 0.00 0.00 0.00 57 1010.4
20260504010015 9 189 0.0 1.6 0.00 0.00 0.00 57 1010.4
20260504005956 9 190 0.0 1.6 0.00 0.00 0.00 57 1010.3
20260504005916 9 189 0.0 1.6 0.00 0.00 0.00 57 1010.3
20260504005815 9 190 0.0 1.6 0.00 0.00 0.00 57 1010.3
20260504005715 9 190 0.0 0.0 0.00 0.00 0.00 57 1010.3
20260504005615 9 190 0.0 0.0 0.00 0.00 0.00 57 1010.3
20260504005516 9 190 0.0 0.0 0.00 0.00 0.00 58 1010.3
20260504005501 8 190 0.0 0.0 0.00 0.00 0.00 61 1010.3
20260504005456 9 189 0.0 0.0 0.00 0.00 0.00 58 1010.3
20260504005415 9 189 0.0 0.0 0.00 0.00 0.00 58 1010.3
20260504005316 9 189 0.0 0.0 0.00 0.00 0.00 58 1010.1
20260504005217 9 190 0.0 0.0 0.00 0.00 0.00 58 1010.3
20260504005123 9 190 0.0 0.0 0.00 0.00 0.00 58 1010.3
20260504005108 9 190 0.0 0.0 0.00 0.00 0.00 59 1010.3
20260504004956 8 190 0.0 0.0 0.00 0.00 0.00 59 1010.3
20260504004916 8 190 0.0 0.0 0.00 0.00 0.00 59 1010.3
20260504004815 8 190 0.0 0.0 0.00 0.00 0.00 59 1010.3
20260504004716 8 189 0.0 0.0 0.00 0.00 0.00 60 1010.3
20260504004616 8 189 0.0 0.0 0.00 0.00 0.00 60 1010.3
20260504004604 8 190 0.0 0.0 0.00 0.00 0.00 61 1010.3
20260504004415 8 190 0.0 0.0 0.00 0.00 0.00 61 1010.3
20260504004316 8 189 0.0 0.0 0.00 0.00 0.00 61 1010.1
20260504004217 8 190 0.0 0.0 0.00 0.00 0.00 61 1010.1
20260504004116 8 189 0.0 0.0 0.00 0.00 0.00 61 1010.1
20260504004015 8 190 0.0 0.0 0.00 0.00 0.00 61 1010.1
20260504004001 8 189 0.0 1.6 0.00 0.00 0.00 62 1010.0
20260504003955 8 190 0.0 0.0 0.00 0.00 0.00 61 1010.1
20260504003916 8 189 0.0 1.6 0.00 0.00 0.00 61 1010.1
20260504003816 8 190 0.0 1.6 0.00 0.00 0.00 62 1010.1
20260504003716 8 189 0.0 1.6 0.00 0.00 0.00 62 1010.0
20260504003621 8 190 0.0 1.6 0.00 0.00 0.00 62 1010.1
20260504003603 8 189 0.0 1.6 0.00 0.00 0.00 62 1010.1
20260504003415 8 190 0.0 1.6 0.00 0.00 0.00 62 1010.0
20260504003316 8 189 0.0 1.6 0.00 0.00 0.00 62 1010.1
20260504003216 8 190 0.0 1.6 0.00 0.00 0.00 62 1010.0
20260504003116 8 189 0.0 3.2 0.00 0.00 0.00 62 1010.0
20260504003015 8 189 0.0 3.2 0.00 0.00 0.00 62 1010.0
20260504003000 8 190 0.0 3.2 0.00 0.00 0.00 62 1010.0
20260504002915 8 190 0.0 3.2 0.00 0.00 0.00 62 1010.0
20260504002815 8 190 0.0 3.2 0.00 0.00 0.00 62 1010.0
20260504002716 8 190 0.0 3.2 0.00 0.00 0.00 62 1010.0
20260504002616 8 189 0.0 3.2 0.00 0.00 0.00 63 1010.0
20260504002515 8 189 0.0 3.2 0.00 0.00 0.00 63 1009.9
20260504002502 9 190 0.0 0.0 0.00 0.00 0.00 61 1009.8
20260504002457 8 190 0.0 3.2 0.00 0.00 0.00 63 1009.9
20260504002417 8 189 0.0 3.2 0.00 0.00 0.00 63 1009.9
20260504002316 8 189 0.0 3.2 0.00 0.00 0.00 63 1009.9
20260504002216 8 190 0.0 3.2 0.00 0.00 0.00 63 1009.9
20260504002122 8 189 0.0 1.6 0.00 0.00 0.00 63 1009.9
20260504002108 8 190 0.0 0.0 0.00 0.00 0.00 62 1009.9
20260504001955 8 190 0.0 0.0 0.00 0.00 0.00 62 1009.8
20260504001916 8 190 0.0 0.0 0.00 0.00 0.00 62 1009.8
20260504001816 8 189 0.0 0.0 0.00 0.00 0.00 62 1009.7
20260504001715 8 190 0.0 0.0 0.00 0.00 0.00 62 1009.8
20260504001617 8 189 0.0 0.0 0.00 0.00 0.00 62 1009.8
20260504001603 9 189 0.0 0.0 0.00 0.00 0.00 62 1009.8
20260504001416 9 190 0.0 0.0 0.00 0.00 0.00 61 1009.8
20260504001316 9 190 0.0 0.0 0.00 0.00 0.00 61 1009.8
20260504001215 9 189 0.0 0.0 0.00 0.00 0.00 61 1009.7
20260504001116 9 190 0.0 0.0 0.00 0.00 0.00 61 1009.7
20260504001015 9 190 0.0 0.0 0.00 0.00 0.00 61 1009.7
20260504000955 9 190 0.0 0.0 0.00 0.00 0.00 61 1009.7
20260504000915 9 189 0.0 0.0 0.00 0.00 0.00 61 1009.7
20260504000815 9 189 0.0 0.0 0.00 0.00 0.00 61 1009.6
20260504000716 9 190 0.0 0.0 0.00 0.00 0.00 61 1009.6
20260504000616 9 190 0.0 0.0 0.00 0.00 0.00 61 1009.6
20260504000516 9 190 0.0 0.0 0.00 0.00 0.00 61 1009.6
20260504000455 9 190 0.0 0.0 0.00 0.00 0.00 62 1009.6
20260504000416 9 189 0.0 0.0 0.00 0.00 0.00 62 1009.6
20260504000316 9 189 0.0 0.0 0.00 0.00 0.00 62 1009.6
20260504000215 9 190 0.0 0.0 0.00 0.00 0.00 62 1009.6
20260504000115 9 189 0.0 0.0 0.00 0.00 0.00 62 1009.6
20260504000015 9 190 0.0 0.0 0.00 0.00 0.00 62 1009.6
20260503235957 9 190 0.0 0.0 0.00 0.00 0.00 62 1009.6
20260503235916 9 189 0.0 0.0 0.00 0.00 0.00 62 1009.6